Year,Month,Day,Hour,Minute,Value (Times are PST for temperature in C)
2011,06,16,00,00,13.10
2011,06,16,00,01,13.10
2011,06,16,00,02,13.10
2011,06,16,00,03,13.10
2011,06,16,00,04,13.10
2011,06,16,00,05,13.10
2011,06,16,00,06,13.10
2011,06,16,00,07,13.10
2011,06,16,00,08,13.10
2011,06,16,00,09,13.00
2011,06,16,00,10,13.00
2011,06,16,00,11,13.00
2011,06,16,00,12,13.00
2011,06,16,00,13,13.00
2011,06,16,00,14,13.00
2011,06,16,00,15,12.90
2011,06,16,00,16,12.90
2011,06,16,00,17,12.90
2011,06,16,00,18,12.90
2011,06,16,00,19,12.90
2011,06,16,00,20,12.90
2011,06,16,00,21,12.90
2011,06,16,00,22,12.90
2011,06,16,00,23,12.90
2011,06,16,00,24,12.90
2011,06,16,00,25,12.90
2011,06,16,00,26,12.90
2011,06,16,00,27,12.90
2011,06,16,00,28,12.90
2011,06,16,00,29,12.90
2011,06,16,00,30,12.90
2011,06,16,00,31,12.90
2011,06,16,00,32,12.80
2011,06,16,00,33,12.80
2011,06,16,00,34,12.80
2011,06,16,00,35,12.80
2011,06,16,00,36,12.80
2011,06,16,00,37,12.80
2011,06,16,00,38,12.80
2011,06,16,00,39,12.80
2011,06,16,00,40,12.80
2011,06,16,00,41,12.80
2011,06,16,00,42,12.80
2011,06,16,00,43,12.70
2011,06,16,00,44,12.70
2011,06,16,00,45,12.70
2011,06,16,00,46,12.70
2011,06,16,00,47,12.70
2011,06,16,00,48,12.70
2011,06,16,00,49,12.70
2011,06,16,00,50,12.60
2011,06,16,00,51,12.60
2011,06,16,00,52,12.60
2011,06,16,00,53,12.60
2011,06,16,00,54,12.60
2011,06,16,00,55,12.60
2011,06,16,00,56,12.60
2011,06,16,00,57,12.60
2011,06,16,00,58,12.60
2011,06,16,00,59,12.60
2011,06,16,01,00,12.60
2011,06,16,01,01,12.60
2011,06,16,01,02,12.60
2011,06,16,01,03,12.60
2011,06,16,01,04,12.60
2011,06,16,01,05,12.50
2011,06,16,01,06,12.50
2011,06,16,01,07,12.60
2011,06,16,01,08,12.60
2011,06,16,01,09,12.60
2011,06,16,01,10,12.60
2011,06,16,01,11,12.60
2011,06,16,01,12,12.60
2011,06,16,01,13,12.50
2011,06,16,01,14,12.50
2011,06,16,01,15,12.50
2011,06,16,01,16,12.50
2011,06,16,01,17,12.50
2011,06,16,01,18,12.50
2011,06,16,01,19,12.50
2011,06,16,01,20,12.50
2011,06,16,01,21,12.50
2011,06,16,01,22,12.50
2011,06,16,01,23,12.50
2011,06,16,01,24,12.40
2011,06,16,01,25,12.40
2011,06,16,01,26,12.40
2011,06,16,01,27,12.40
2011,06,16,01,28,12.40
2011,06,16,01,29,12.40
2011,06,16,01,30,12.30
2011,06,16,01,31,12.30
2011,06,16,01,32,12.30
2011,06,16,01,33,12.30
2011,06,16,01,34,12.30
2011,06,16,01,35,12.30
2011,06,16,01,36,12.30
2011,06,16,01,37,12.30
2011,06,16,01,38,12.30
2011,06,16,01,39,12.30
2011,06,16,01,40,12.30
2011,06,16,01,41,12.30
2011,06,16,01,42,12.30
2011,06,16,01,43,12.30
2011,06,16,01,44,12.20
2011,06,16,01,45,12.20
2011,06,16,01,46,12.20
2011,06,16,01,47,12.30
2011,06,16,01,48,12.30
2011,06,16,01,49,12.30
2011,06,16,01,50,12.20
2011,06,16,01,51,12.30
2011,06,16,01,52,12.30
2011,06,16,01,53,12.30
2011,06,16,01,54,12.20
2011,06,16,01,55,12.20
2011,06,16,01,56,12.20
2011,06,16,01,57,12.20
2011,06,16,01,58,12.20
2011,06,16,01,59,12.20
2011,06,16,02,00,12.20
2011,06,16,02,01,12.20
2011,06,16,02,02,12.20
2011,06,16,02,03,12.20
2011,06,16,02,04,12.10
2011,06,16,02,05,12.10
2011,06,16,02,06,12.10
2011,06,16,02,07,12.10
2011,06,16,02,08,12.10
2011,06,16,02,09,12.10
2011,06,16,02,10,12.10
2011,06,16,02,11,12.00
2011,06,16,02,12,12.00
2011,06,16,02,13,12.00
2011,06,16,02,14,12.00
2011,06,16,02,15,12.00
2011,06,16,02,16,12.00
2011,06,16,02,17,12.00
2011,06,16,02,18,12.00
2011,06,16,02,19,12.00
2011,06,16,02,20,12.00
2011,06,16,02,21,12.00
2011,06,16,02,22,11.90
2011,06,16,02,23,11.90
2011,06,16,02,24,11.90
2011,06,16,02,25,11.90
2011,06,16,02,26,11.90
2011,06,16,02,27,11.90
2011,06,16,02,28,11.90
2011,06,16,02,29,11.90
2011,06,16,02,30,11.80
2011,06,16,02,31,11.80
2011,06,16,02,32,11.80
2011,06,16,02,33,11.80
2011,06,16,02,34,11.80
2011,06,16,02,35,11.80
2011,06,16,02,36,11.70
2011,06,16,02,37,11.70
2011,06,16,02,38,11.70
2011,06,16,02,39,11.70
2011,06,16,02,40,11.70
2011,06,16,02,41,11.70
2011,06,16,02,42,11.70
2011,06,16,02,43,11.70
2011,06,16,02,44,11.70
2011,06,16,02,45,11.60
2011,06,16,02,46,11.60
2011,06,16,02,47,11.60
2011,06,16,02,48,11.60
2011,06,16,02,49,11.60
2011,06,16,02,50,11.60
2011,06,16,02,51,11.60
2011,06,16,02,52,11.60
2011,06,16,02,53,11.60
2011,06,16,02,54,11.60
2011,06,16,02,55,11.60
2011,06,16,02,56,11.60
2011,06,16,02,57,11.60
2011,06,16,02,58,11.60
2011,06,16,02,59,11.60
2011,06,16,03,00,11.50
2011,06,16,03,01,11.50
2011,06,16,03,02,11.50
2011,06,16,03,03,11.50
2011,06,16,03,04,11.50
2011,06,16,03,05,11.50
2011,06,16,03,06,11.40
2011,06,16,03,07,11.40
2011,06,16,03,08,11.40
2011,06,16,03,09,11.40
2011,06,16,03,10,11.40
2011,06,16,03,11,11.30
2011,06,16,03,12,11.30
2011,06,16,03,13,11.30
2011,06,16,03,14,11.30
2011,06,16,03,15,11.30
2011,06,16,03,16,11.30
2011,06,16,03,17,11.30
2011,06,16,03,18,11.30
2011,06,16,03,19,11.30
2011,06,16,03,20,11.30
2011,06,16,03,21,11.30
2011,06,16,03,22,11.30
2011,06,16,03,23,11.20
2011,06,16,03,24,11.20
2011,06,16,03,25,11.20
2011,06,16,03,26,11.20
2011,06,16,03,27,11.20
2011,06,16,03,28,11.20
2011,06,16,03,29,11.20
2011,06,16,03,30,11.20
2011,06,16,03,31,11.20
2011,06,16,03,32,11.20
2011,06,16,03,33,11.20
2011,06,16,03,34,11.20
2011,06,16,03,35,11.20
2011,06,16,03,36,11.20
2011,06,16,03,37,11.20
2011,06,16,03,38,11.20
2011,06,16,03,39,11.20
2011,06,16,03,40,11.20
2011,06,16,03,41,11.20
2011,06,16,03,42,11.20
2011,06,16,03,43,11.20
2011,06,16,03,44,11.20
2011,06,16,03,45,11.20
2011,06,16,03,46,11.20
2011,06,16,03,47,11.20
2011,06,16,03,48,11.20
2011,06,16,03,49,11.20
2011,06,16,03,50,11.20
2011,06,16,03,51,11.20
2011,06,16,03,52,11.20
2011,06,16,03,53,11.20
2011,06,16,03,54,11.20
2011,06,16,03,55,11.20
2011,06,16,03,56,11.20
2011,06,16,03,57,11.20
2011,06,16,03,58,11.20
2011,06,16,03,59,11.20
2011,06,16,04,00,11.20
2011,06,16,04,01,11.20
2011,06,16,04,02,11.20
2011,06,16,04,03,11.20
2011,06,16,04,04,11.20
2011,06,16,04,05,11.20
2011,06,16,04,06,11.20
2011,06,16,04,07,11.20
2011,06,16,04,08,11.20
2011,06,16,04,09,11.20
2011,06,16,04,10,11.20
2011,06,16,04,11,11.10
2011,06,16,04,12,11.10
2011,06,16,04,13,11.10
2011,06,16,04,14,11.10
2011,06,16,04,15,11.10
2011,06,16,04,16,11.10
2011,06,16,04,17,11.10
2011,06,16,04,18,11.00
2011,06,16,04,19,11.00
2011,06,16,04,20,10.90
2011,06,16,04,21,10.90
2011,06,16,04,22,10.90
2011,06,16,04,23,10.80
2011,06,16,04,24,10.80
2011,06,16,04,25,10.80
2011,06,16,04,26,10.80
2011,06,16,04,27,10.80
2011,06,16,04,28,10.70
2011,06,16,04,29,10.70
2011,06,16,04,30,10.70
2011,06,16,04,31,10.70
2011,06,16,04,32,10.70
2011,06,16,04,33,10.70
2011,06,16,04,34,10.60
2011,06,16,04,35,10.50
2011,06,16,04,36,10.50
2011,06,16,04,37,10.40
2011,06,16,04,38,10.30
2011,06,16,04,39,10.30
2011,06,16,04,40,10.20
2011,06,16,04,41,10.10
2011,06,16,04,42,10.00
2011,06,16,04,43,10.00
2011,06,16,04,44,9.90
2011,06,16,04,45,9.80
2011,06,16,04,46,9.80
2011,06,16,04,47,9.70
2011,06,16,04,48,9.60
2011,06,16,04,49,9.60
2011,06,16,04,50,9.60
2011,06,16,04,51,9.60
2011,06,16,04,52,9.50
2011,06,16,04,53,9.50
2011,06,16,04,54,9.50
2011,06,16,04,55,9.50
2011,06,16,04,56,9.50
2011,06,16,04,57,9.60
2011,06,16,04,58,9.60
2011,06,16,04,59,9.60
2011,06,16,05,00,9.60
2011,06,16,05,01,9.60
2011,06,16,05,02,9.70
2011,06,16,05,03,9.70
2011,06,16,05,04,9.70
2011,06,16,05,05,9.70
2011,06,16,05,06,9.70
2011,06,16,05,07,9.60
2011,06,16,05,08,9.60
2011,06,16,05,09,9.60
2011,06,16,05,10,9.60
2011,06,16,05,11,9.60
2011,06,16,05,12,9.60
2011,06,16,05,13,9.70
2011,06,16,05,14,9.70
2011,06,16,05,15,9.80
2011,06,16,05,16,9.80
2011,06,16,05,17,9.80
2011,06,16,05,18,9.90
2011,06,16,05,19,9.90
2011,06,16,05,20,10.00
2011,06,16,05,21,10.00
2011,06,16,05,22,10.10
2011,06,16,05,23,10.10
2011,06,16,05,24,10.10
2011,06,16,05,25,10.10
2011,06,16,05,26,10.10
2011,06,16,05,27,10.20
2011,06,16,05,28,10.20
2011,06,16,05,29,10.20
2011,06,16,05,30,10.20
2011,06,16,05,31,10.30
2011,06,16,05,32,10.30
2011,06,16,05,33,10.30
2011,06,16,05,34,10.30
2011,06,16,05,35,10.40
2011,06,16,05,36,10.40
2011,06,16,05,37,10.40
2011,06,16,05,38,10.40
2011,06,16,05,39,10.40
2011,06,16,05,40,10.40
2011,06,16,05,41,10.40
2011,06,16,05,42,10.40
2011,06,16,05,43,10.40
2011,06,16,05,44,10.50
2011,06,16,05,45,10.50
2011,06,16,05,46,10.50
2011,06,16,05,47,10.60
2011,06,16,05,48,10.60
2011,06,16,05,49,10.60
2011,06,16,05,50,10.60
2011,06,16,05,51,10.60
2011,06,16,05,52,10.60
2011,06,16,05,53,10.60
2011,06,16,05,54,10.60
2011,06,16,05,55,10.60
2011,06,16,05,56,10.60
2011,06,16,05,57,10.60
2011,06,16,05,58,10.70
2011,06,16,05,59,10.70
2011,06,16,06,00,10.70
2011,06,16,06,01,10.70
2011,06,16,06,02,10.70
2011,06,16,06,03,10.70
2011,06,16,06,04,10.70
2011,06,16,06,05,10.70
2011,06,16,06,06,10.70
2011,06,16,06,07,10.70
2011,06,16,06,08,10.80
2011,06,16,06,09,10.80
2011,06,16,06,10,10.80
2011,06,16,06,11,10.80
2011,06,16,06,12,10.80
2011,06,16,06,13,10.80
2011,06,16,06,14,10.80
2011,06,16,06,15,10.80
2011,06,16,06,16,10.90
2011,06,16,06,17,10.90
2011,06,16,06,18,10.90
2011,06,16,06,19,10.90
2011,06,16,06,20,10.90
2011,06,16,06,21,10.90
2011,06,16,06,22,10.90
2011,06,16,06,23,10.90
2011,06,16,06,24,10.90
2011,06,16,06,25,11.00
2011,06,16,06,26,11.00
2011,06,16,06,27,11.00
2011,06,16,06,28,11.00
2011,06,16,06,29,11.00
2011,06,16,06,30,11.00
2011,06,16,06,31,11.00
2011,06,16,06,32,11.00
2011,06,16,06,33,11.10
2011,06,16,06,34,11.10
2011,06,16,06,35,11.10
2011,06,16,06,36,11.10
2011,06,16,06,37,11.10
2011,06,16,06,38,11.10
2011,06,16,06,39,11.20
2011,06,16,06,40,11.20
2011,06,16,06,41,11.20
2011,06,16,06,42,11.20
2011,06,16,06,43,11.20
2011,06,16,06,44,11.20
2011,06,16,06,45,11.20
2011,06,16,06,46,11.20
2011,06,16,06,47,11.20
2011,06,16,06,48,11.20
2011,06,16,06,49,11.20
2011,06,16,06,50,11.30
2011,06,16,06,51,11.30
2011,06,16,06,52,11.30
2011,06,16,06,53,11.30
2011,06,16,06,54,11.30
2011,06,16,06,55,11.30
2011,06,16,06,56,11.40
2011,06,16,06,57,11.40
2011,06,16,06,58,11.40
2011,06,16,06,59,11.40
2011,06,16,07,00,11.40
2011,06,16,07,01,11.50
2011,06,16,07,02,11.50
2011,06,16,07,03,11.50
2011,06,16,07,04,11.50
2011,06,16,07,05,11.60
2011,06,16,07,06,11.60
2011,06,16,07,07,11.60
2011,06,16,07,08,11.60
2011,06,16,07,09,11.60
2011,06,16,07,10,11.60
2011,06,16,07,11,11.60
2011,06,16,07,12,11.70
2011,06,16,07,13,11.70
2011,06,16,07,14,11.70
2011,06,16,07,15,11.70
2011,06,16,07,16,11.70
2011,06,16,07,17,11.70
2011,06,16,07,18,11.70
2011,06,16,07,19,11.70
2011,06,16,07,20,11.70
2011,06,16,07,21,11.70
2011,06,16,07,22,11.70
2011,06,16,07,23,11.80
2011,06,16,07,24,11.80
2011,06,16,07,25,11.80
2011,06,16,07,26,11.80
2011,06,16,07,27,11.80
2011,06,16,07,28,11.80
2011,06,16,07,29,11.80
2011,06,16,07,30,11.80
2011,06,16,07,31,11.80
2011,06,16,07,32,11.80
2011,06,16,07,33,11.80
2011,06,16,07,34,11.80
2011,06,16,07,35,11.80
2011,06,16,07,36,11.80
2011,06,16,07,37,11.90
2011,06,16,07,38,11.90
2011,06,16,07,39,11.90
2011,06,16,07,40,11.90
2011,06,16,07,41,11.90
2011,06,16,07,42,11.90
2011,06,16,07,43,11.90
2011,06,16,07,44,11.90
2011,06,16,07,45,11.90
2011,06,16,07,46,11.90
2011,06,16,07,47,11.90
2011,06,16,07,48,11.90
2011,06,16,07,49,11.90
2011,06,16,07,50,11.90
2011,06,16,07,51,11.90
2011,06,16,07,52,11.90
2011,06,16,07,53,11.90
2011,06,16,07,54,12.00
2011,06,16,07,55,12.00
2011,06,16,07,56,12.00
2011,06,16,07,57,12.00
2011,06,16,07,58,12.00
2011,06,16,07,59,12.00
2011,06,16,08,00,12.00
2011,06,16,08,01,12.00
2011,06,16,08,02,12.00
2011,06,16,08,03,12.00
2011,06,16,08,04,12.00
2011,06,16,08,05,12.00
2011,06,16,08,06,12.00
2011,06,16,08,07,12.00
2011,06,16,08,08,11.90
2011,06,16,08,09,12.00
2011,06,16,08,10,12.00
2011,06,16,08,11,12.10
2011,06,16,08,12,12.10
2011,06,16,08,13,12.10
2011,06,16,08,14,12.20
2011,06,16,08,15,12.20
2011,06,16,08,16,12.20
2011,06,16,08,17,12.30
2011,06,16,08,18,12.30
2011,06,16,08,19,12.30
2011,06,16,08,20,12.30
2011,06,16,08,21,12.30
2011,06,16,08,22,12.30
2011,06,16,08,23,12.30
2011,06,16,08,24,12.30
2011,06,16,08,25,12.30
2011,06,16,08,26,12.30
2011,06,16,08,27,12.30
2011,06,16,08,28,12.30
2011,06,16,08,29,12.30
2011,06,16,08,30,12.30
2011,06,16,08,31,12.30
2011,06,16,08,32,12.30
2011,06,16,08,33,12.30
2011,06,16,08,34,12.30
2011,06,16,08,35,12.30
2011,06,16,08,36,12.30
2011,06,16,08,37,12.20
2011,06,16,08,38,12.20
2011,06,16,08,39,12.10
2011,06,16,08,40,12.10
2011,06,16,08,41,12.10
2011,06,16,08,42,12.20
2011,06,16,08,43,12.20
2011,06,16,08,44,12.20
2011,06,16,08,45,12.20
2011,06,16,08,46,12.20
2011,06,16,08,47,12.20
2011,06,16,08,48,12.20
2011,06,16,08,49,12.30
2011,06,16,08,50,12.30
2011,06,16,08,51,12.30
2011,06,16,08,52,12.30
2011,06,16,08,53,12.30
2011,06,16,08,54,12.30
2011,06,16,08,55,12.30
2011,06,16,08,56,12.30
2011,06,16,08,57,12.30
2011,06,16,08,58,12.20
2011,06,16,08,59,12.20
2011,06,16,09,00,12.20
2011,06,16,09,01,12.10
2011,06,16,09,02,12.20
2011,06,16,09,03,12.20
2011,06,16,09,04,12.20
2011,06,16,09,05,12.20
2011,06,16,09,06,12.20
2011,06,16,09,07,12.20
2011,06,16,09,08,12.20
2011,06,16,09,09,12.10
2011,06,16,09,10,12.10
2011,06,16,09,11,12.10
2011,06,16,09,12,12.10
2011,06,16,09,13,12.10
2011,06,16,09,14,12.10
2011,06,16,09,15,12.10
2011,06,16,09,16,12.20
2011,06,16,09,17,12.10
2011,06,16,09,18,12.10
2011,06,16,09,19,12.20
2011,06,16,09,20,12.20
2011,06,16,09,21,12.20
2011,06,16,09,22,12.30
2011,06,16,09,23,12.30
2011,06,16,09,24,12.40
2011,06,16,09,25,12.40
2011,06,16,09,26,12.40
2011,06,16,09,27,12.50
2011,06,16,09,28,12.50
2011,06,16,09,29,12.40
2011,06,16,09,30,12.40
2011,06,16,09,31,12.40
2011,06,16,09,32,12.40
2011,06,16,09,33,12.50
2011,06,16,09,34,12.50
2011,06,16,09,35,12.50
2011,06,16,09,36,12.50
2011,06,16,09,37,12.40
2011,06,16,09,38,12.40
2011,06,16,09,39,12.40
2011,06,16,09,40,12.40
2011,06,16,09,41,12.40
2011,06,16,09,42,12.50
2011,06,16,09,43,12.60
2011,06,16,09,44,12.70
2011,06,16,09,45,12.70
2011,06,16,09,46,12.70
2011,06,16,09,47,12.60
2011,06,16,09,48,12.60
2011,06,16,09,49,12.60
2011,06,16,09,50,12.70
2011,06,16,09,51,12.80
2011,06,16,09,52,12.90
2011,06,16,09,53,12.90
2011,06,16,09,54,12.90
2011,06,16,09,55,12.80
2011,06,16,09,56,12.80
2011,06,16,09,57,12.80
2011,06,16,09,58,12.70
2011,06,16,09,59,12.70
2011,06,16,10,00,12.70
2011,06,16,10,01,12.60
2011,06,16,10,02,12.60
2011,06,16,10,03,12.50
2011,06,16,10,04,12.50
2011,06,16,10,05,12.50
2011,06,16,10,06,12.50
2011,06,16,10,07,12.50
2011,06,16,10,08,12.50
2011,06,16,10,09,12.60
2011,06,16,10,10,12.70
2011,06,16,10,11,12.70
2011,06,16,10,12,12.80
2011,06,16,10,13,12.80
2011,06,16,10,14,12.80
2011,06,16,10,15,12.90
2011,06,16,10,16,12.90
2011,06,16,10,17,12.90
2011,06,16,10,18,12.90
2011,06,16,10,19,12.90
2011,06,16,10,20,13.00
2011,06,16,10,21,13.00
2011,06,16,10,22,12.90
2011,06,16,10,23,12.80
2011,06,16,10,24,12.80
2011,06,16,10,25,12.70
2011,06,16,10,26,12.70
2011,06,16,10,27,12.60
2011,06,16,10,28,12.60
2011,06,16,10,29,12.60
2011,06,16,10,30,12.70
2011,06,16,10,31,12.60
2011,06,16,10,32,12.60
2011,06,16,10,33,12.60
2011,06,16,10,34,12.60
2011,06,16,10,35,12.60
2011,06,16,10,36,12.60
2011,06,16,10,37,12.60
2011,06,16,10,38,12.60
2011,06,16,10,39,12.70
2011,06,16,10,40,12.70
2011,06,16,10,41,12.60
2011,06,16,10,42,12.60
2011,06,16,10,43,12.60
2011,06,16,10,44,12.60
2011,06,16,10,45,12.60
2011,06,16,10,46,12.60
2011,06,16,10,47,12.50
2011,06,16,10,48,12.50
2011,06,16,10,49,12.60
2011,06,16,10,50,12.60
2011,06,16,10,51,12.60
2011,06,16,10,52,12.60
2011,06,16,10,53,12.60
2011,06,16,10,54,12.60
2011,06,16,10,55,12.60
2011,06,16,10,56,12.60
2011,06,16,10,57,12.60
2011,06,16,10,58,12.60
2011,06,16,10,59,12.60
2011,06,16,11,00,12.70
2011,06,16,11,01,12.60
2011,06,16,11,02,12.60
2011,06,16,11,03,12.60
2011,06,16,11,04,12.60
2011,06,16,11,05,12.60
2011,06,16,11,06,12.70
2011,06,16,11,07,12.80
2011,06,16,11,08,12.80
2011,06,16,11,09,12.90
2011,06,16,11,10,13.00
2011,06,16,11,11,13.00
2011,06,16,11,12,13.10
2011,06,16,11,13,13.10
2011,06,16,11,14,13.20
2011,06,16,11,15,13.30
2011,06,16,11,16,13.30
2011,06,16,11,17,13.40
2011,06,16,11,18,13.40
2011,06,16,11,19,13.40
2011,06,16,11,20,13.40
2011,06,16,11,21,13.40
2011,06,16,11,22,13.40
2011,06,16,11,23,13.40
2011,06,16,11,24,13.30
2011,06,16,11,25,13.20
2011,06,16,11,26,13.10
2011,06,16,11,27,13.20
2011,06,16,11,28,13.20
2011,06,16,11,29,13.20
2011,06,16,11,30,13.20
2011,06,16,11,31,13.20
2011,06,16,11,32,13.20
2011,06,16,11,33,13.30
2011,06,16,11,34,13.30
2011,06,16,11,35,13.30
2011,06,16,11,36,13.30
2011,06,16,11,37,13.20
2011,06,16,11,38,13.10
2011,06,16,11,39,13.10
2011,06,16,11,40,13.10
2011,06,16,11,41,13.20
2011,06,16,11,42,13.30
2011,06,16,11,43,13.30
2011,06,16,11,44,13.40
2011,06,16,11,45,13.40
2011,06,16,11,46,13.30
2011,06,16,11,47,13.20
2011,06,16,11,48,13.20
2011,06,16,11,49,13.20
2011,06,16,11,50,13.20
2011,06,16,11,51,13.20
2011,06,16,11,52,13.30
2011,06,16,11,53,13.30
2011,06,16,11,54,13.40
2011,06,16,11,55,13.40
2011,06,16,11,56,13.30
2011,06,16,11,57,13.20
2011,06,16,11,58,13.20
2011,06,16,11,59,13.30
2011,06,16,12,00,13.40
2011,06,16,12,01,13.40
2011,06,16,12,02,13.30
2011,06,16,12,03,13.20
2011,06,16,12,04,13.20
2011,06,16,12,05,13.20
2011,06,16,12,06,13.20
2011,06,16,12,07,13.20
2011,06,16,12,08,13.20
2011,06,16,12,09,13.30
2011,06,16,12,10,13.30
2011,06,16,12,11,13.40
2011,06,16,12,12,13.30
2011,06,16,12,13,13.20
2011,06,16,12,14,13.10
2011,06,16,12,15,13.10
2011,06,16,12,16,13.10
2011,06,16,12,17,13.20
2011,06,16,12,18,13.30
2011,06,16,12,19,13.30
2011,06,16,12,20,13.30
2011,06,16,12,21,13.30
2011,06,16,12,22,13.30
2011,06,16,12,23,13.30
2011,06,16,12,24,13.30
2011,06,16,12,25,13.30
2011,06,16,12,26,13.30
2011,06,16,12,27,13.30
2011,06,16,12,28,13.30
2011,06,16,12,29,13.30
2011,06,16,12,30,13.30
2011,06,16,12,31,13.40
2011,06,16,12,32,13.50
2011,06,16,12,33,13.60
2011,06,16,12,34,13.60
2011,06,16,12,35,13.70
2011,06,16,12,36,13.70
2011,06,16,12,37,13.70
2011,06,16,12,38,13.70
2011,06,16,12,39,13.70
2011,06,16,12,40,13.60
2011,06,16,12,41,13.60
2011,06,16,12,42,13.60
2011,06,16,12,43,13.60
2011,06,16,12,44,13.60
2011,06,16,12,45,13.60
2011,06,16,12,46,13.50
2011,06,16,12,47,13.50
2011,06,16,12,48,13.50
2011,06,16,12,49,13.50
2011,06,16,12,50,13.50
2011,06,16,12,51,13.50
2011,06,16,12,52,13.50
2011,06,16,12,53,13.50
2011,06,16,12,54,13.40
2011,06,16,12,55,13.40
2011,06,16,12,56,13.30
2011,06,16,12,57,13.30
2011,06,16,12,58,13.30
2011,06,16,12,59,13.30
2011,06,16,13,00,13.30
2011,06,16,13,01,13.20
2011,06,16,13,02,13.10
2011,06,16,13,03,13.10
2011,06,16,13,04,13.10
2011,06,16,13,05,13.20
2011,06,16,13,06,13.20
2011,06,16,13,07,13.20
2011,06,16,13,08,13.20
2011,06,16,13,09,13.20
2011,06,16,13,10,13.30
2011,06,16,13,11,13.30
2011,06,16,13,12,13.20
2011,06,16,13,13,13.20
2011,06,16,13,14,13.20
2011,06,16,13,15,13.30
2011,06,16,13,16,13.30
2011,06,16,13,17,13.30
2011,06,16,13,18,13.30
2011,06,16,13,19,13.30
2011,06,16,13,20,13.30
2011,06,16,13,21,13.30
2011,06,16,13,22,13.30
2011,06,16,13,23,13.30
2011,06,16,13,24,13.40
2011,06,16,13,25,13.40
2011,06,16,13,26,13.40
2011,06,16,13,27,13.40
2011,06,16,13,28,13.50
2011,06,16,13,29,13.50
2011,06,16,13,30,13.40
2011,06,16,13,31,13.30
2011,06,16,13,32,13.30
2011,06,16,13,33,13.30
2011,06,16,13,34,13.40
2011,06,16,13,35,13.40
2011,06,16,13,36,13.50
2011,06,16,13,37,13.60
2011,06,16,13,38,13.70
2011,06,16,13,39,13.80
2011,06,16,13,40,13.80
2011,06,16,13,41,13.80
2011,06,16,13,42,13.80
2011,06,16,13,43,13.70
2011,06,16,13,44,13.60
2011,06,16,13,45,13.50
2011,06,16,13,46,13.50
2011,06,16,13,47,13.60
2011,06,16,13,48,13.60
2011,06,16,13,49,13.60
2011,06,16,13,50,13.70
2011,06,16,13,51,13.60
2011,06,16,13,52,13.60
2011,06,16,13,53,13.60
2011,06,16,13,54,13.60
2011,06,16,13,55,13.60
2011,06,16,13,56,13.70
2011,06,16,13,57,13.70
2011,06,16,13,58,13.70
2011,06,16,13,59,13.80
2011,06,16,14,00,13.80
2011,06,16,14,01,13.70
2011,06,16,14,02,13.70
2011,06,16,14,03,13.70
2011,06,16,14,04,13.70
2011,06,16,14,05,13.60
2011,06,16,14,06,13.60
2011,06,16,14,07,13.60
2011,06,16,14,08,13.60
2011,06,16,14,09,13.70
2011,06,16,14,10,13.80
2011,06,16,14,11,13.90
2011,06,16,14,12,13.90
2011,06,16,14,13,13.90
2011,06,16,14,14,13.90
2011,06,16,14,15,14.00
2011,06,16,14,16,14.00
2011,06,16,14,17,14.00
2011,06,16,14,18,14.00
2011,06,16,14,19,14.10
2011,06,16,14,20,14.20
2011,06,16,14,21,14.20
2011,06,16,14,22,14.30
2011,06,16,14,23,14.50
2011,06,16,14,24,14.70
2011,06,16,14,25,14.70
2011,06,16,14,26,14.70
2011,06,16,14,27,14.80
2011,06,16,14,28,14.90
2011,06,16,14,29,15.00
2011,06,16,14,30,14.90
2011,06,16,14,31,14.80
2011,06,16,14,32,14.80
2011,06,16,14,33,14.70
2011,06,16,14,34,14.60
2011,06,16,14,35,14.60
2011,06,16,14,36,14.60
2011,06,16,14,37,14.60
2011,06,16,14,38,14.60
2011,06,16,14,39,14.60
2011,06,16,14,40,14.50
2011,06,16,14,41,14.50
2011,06,16,14,42,14.60
2011,06,16,14,43,14.70
2011,06,16,14,44,14.70
2011,06,16,14,45,14.80
2011,06,16,14,46,14.80
2011,06,16,14,47,14.90
2011,06,16,14,48,14.90
2011,06,16,14,49,15.00
2011,06,16,14,50,15.00
2011,06,16,14,51,15.20
2011,06,16,14,52,15.20
2011,06,16,14,53,15.10
2011,06,16,14,54,15.10
2011,06,16,14,55,15.10
2011,06,16,14,56,15.20
2011,06,16,14,57,15.20
2011,06,16,14,58,15.30
2011,06,16,14,59,15.30
2011,06,16,15,00,15.40
2011,06,16,15,01,15.40
2011,06,16,15,02,15.40
2011,06,16,15,03,15.50
2011,06,16,15,04,15.50
2011,06,16,15,05,15.60
2011,06,16,15,06,15.60
2011,06,16,15,07,15.70
2011,06,16,15,08,15.70
2011,06,16,15,09,15.60
2011,06,16,15,10,15.60
2011,06,16,15,11,15.60
2011,06,16,15,12,15.60
2011,06,16,15,13,15.60
2011,06,16,15,14,15.50
2011,06,16,15,15,15.40
2011,06,16,15,16,15.50
2011,06,16,15,17,15.50
2011,06,16,15,18,15.60
2011,06,16,15,19,15.80
2011,06,16,15,20,15.80
2011,06,16,15,21,15.90
2011,06,16,15,22,15.90
2011,06,16,15,23,15.90
2011,06,16,15,24,15.90
2011,06,16,15,25,15.80
2011,06,16,15,26,15.80
2011,06,16,15,27,15.80
2011,06,16,15,28,15.70
2011,06,16,15,29,15.70
2011,06,16,15,30,15.80
2011,06,16,15,31,15.90
2011,06,16,15,32,16.00
2011,06,16,15,33,16.00
2011,06,16,15,34,16.10
2011,06,16,15,35,16.10
2011,06,16,15,36,16.10
2011,06,16,15,37,16.00
2011,06,16,15,38,16.10
2011,06,16,15,39,16.10
2011,06,16,15,40,16.00
2011,06,16,15,41,15.90
2011,06,16,15,42,16.00
2011,06,16,15,43,16.00
2011,06,16,15,44,16.00
2011,06,16,15,45,16.00
2011,06,16,15,46,16.00
2011,06,16,15,47,16.10
2011,06,16,15,48,16.10
2011,06,16,15,49,16.10
2011,06,16,15,50,16.20
2011,06,16,15,51,16.30
2011,06,16,15,52,16.30
2011,06,16,15,53,16.30
2011,06,16,15,54,16.30
2011,06,16,15,55,16.30
2011,06,16,15,56,16.30
2011,06,16,15,57,16.30
2011,06,16,15,58,16.30
2011,06,16,15,59,16.30
2011,06,16,16,00,16.40
2011,06,16,16,01,16.40
2011,06,16,16,02,16.50
2011,06,16,16,03,16.60
2011,06,16,16,04,16.50
2011,06,16,16,05,16.40
2011,06,16,16,06,16.40
2011,06,16,16,07,16.40
2011,06,16,16,08,16.40
2011,06,16,16,09,16.40
2011,06,16,16,10,16.30
2011,06,16,16,11,16.30
2011,06,16,16,12,16.20
2011,06,16,16,13,16.20
2011,06,16,16,14,16.30
2011,06,16,16,15,16.20
2011,06,16,16,16,16.30
2011,06,16,16,17,16.40
2011,06,16,16,18,16.50
2011,06,16,16,19,16.50
2011,06,16,16,20,16.60
2011,06,16,16,21,16.50
2011,06,16,16,22,16.40
2011,06,16,16,23,16.30
2011,06,16,16,24,16.30
2011,06,16,16,25,16.20
2011,06,16,16,26,16.30
2011,06,16,16,27,16.30
2011,06,16,16,28,16.30
2011,06,16,16,29,16.30
2011,06,16,16,30,16.40
2011,06,16,16,31,16.40
2011,06,16,16,32,16.40
2011,06,16,16,33,16.50
2011,06,16,16,34,16.50
2011,06,16,16,35,16.60
2011,06,16,16,36,16.70
2011,06,16,16,37,16.80
2011,06,16,16,38,16.80
2011,06,16,16,39,16.80
2011,06,16,16,40,16.80
2011,06,16,16,41,16.90
2011,06,16,16,42,17.10
2011,06,16,16,43,17.20
2011,06,16,16,44,17.30
2011,06,16,16,45,17.30
2011,06,16,16,46,17.30
2011,06,16,16,47,17.40
2011,06,16,16,48,17.50
2011,06,16,16,49,17.60
2011,06,16,16,50,17.60
2011,06,16,16,51,17.70
2011,06,16,16,52,17.70
2011,06,16,16,53,17.80
2011,06,16,16,54,17.70
2011,06,16,16,55,17.70
2011,06,16,16,56,17.60
2011,06,16,16,57,17.50
2011,06,16,16,58,17.50
2011,06,16,16,59,17.50
2011,06,16,17,00,17.50
2011,06,16,17,01,17.50
2011,06,16,17,02,17.40
2011,06,16,17,03,17.40
2011,06,16,17,04,17.40
2011,06,16,17,05,17.50
2011,06,16,17,06,17.50
2011,06,16,17,07,17.60
2011,06,16,17,08,17.70
2011,06,16,17,09,17.80
2011,06,16,17,10,17.80
2011,06,16,17,11,17.80
2011,06,16,17,12,17.90
2011,06,16,17,13,17.90
2011,06,16,17,14,17.80
2011,06,16,17,15,17.60
2011,06,16,17,16,17.50
2011,06,16,17,17,17.40
2011,06,16,17,18,17.30
2011,06,16,17,19,17.30
2011,06,16,17,20,17.30
2011,06,16,17,21,17.30